Regional Weather Roundup
Issued by NWS Sterling, VA

Home | Current Version | Previous Version | Text Only | Print | Product List | Glossary On
Versions: 1 2 3 4 5 6 7 8 9 10 11 12 13 14 15 16 17 18 19 20 21 22 23 24 25 26 27
000
ASUS41 KLWX 020511
RWRLWX

REGIONAL WEATHER ROUNDUP
NATIONAL WEATHER SERVICE BALTIMORE MD/WASHINGTON DC
100 AM EDT MON MAY 02 2016

Note: "FAIR" indicates few or no clouds below 12,000 feet
with no significant weather and/or obstructions to visibility.
 TC=TEMPERATURE CELSIUS

 * =Non NWS site. Station does not report precipitation (e.g. rain,
    snow, etc.), thunder, or fog.

DCZ001-MDZ009-015-VAZ040>042-051-053>054-020600-
WASHINGTON METRO

CITY           SKY/WX    TMP DP  RH WIND       PRES   REMARKS
WASHINGTON NAT LGT RAIN  56  54  93 CALM      30.02F
DULLES         LGT RAIN  55  54  96 VRB3      30.01R
ANDREWS AFB    LGT RAIN  54  54 100 SE8       30.00S VSB 3/4
FT BELVOIR     RAIN      55  54  94 CALM      30.01R FOG
QUANTICO       TSTM      58  57  97 E6        30.01F FOG
COLLEGE PARK*  CLOUDY    54  52  94 SE3       30.01F
LEESBURG*      CLOUDY    55  55 100 CALM      30.01S
MANASSAS*      CLOUDY    55  55 100 SE7       30.00S
GAITHERSBURG*  CLOUDY    54  50  87 N3        30.04S

$$

MDZ006>007-011-014-020600-
BALTIMORE METRO

CITY           SKY/WX    TMP DP  RH WIND       PRES   REMARKS
BWI AIRPORT    LGT RAIN  53  52  96 SE10      29.99F FOG
MD SCIENCE CTR   N/A     54  52  93 MISG      29.97F
MARTIN STATE   LGT RAIN  54  54 100 NE5       30.00F
ANNAPOLIS      CLOUDY    54  53  97 E6        30.01F
FORT MEADE*    CLOUDY    52  52 100 SE7       30.03F

$$

MDZ012-015-019>023-020600-
MARYLAND EASTERN SHORE

CITY           SKY/WX    TMP DP  RH WIND       PRES   REMARKS
OCEAN CITY     CLOUDY    53  52  96 NE6       30.02F FOG
SALISBURY      CLOUDY    54  54 100 E6        30.01S FOG
CAMBRIDGE*     CLOUDY    52  52 100 CALM      30.00F
EASTON*        FOG      N/A N/A N/A NE5       30.06F VSB 3/4

$$

MDZ017>025-020600-
SOUTHERN MARYLAND

CITY           SKY/WX    TMP DP  RH WIND       PRES   REMARKS
PATUXENT RIVER FOG       56  55  97 CALM      30.01F VSB 3/4
ST INIGOES     CLOUDY    57  56  96 NE5         N/A  FOG
LEONARDTOWN*   CLOUDY    55  54  94 CALM      30.03S VSB 3/4

$$

MDZ003>005-020600-
NORTH CENTRAL MARYLAND

CITY           SKY/WX    TMP DP  RH WIND       PRES   REMARKS
FREDERICK*     RAIN      54  54 100 N5        30.03F
HAGERSTOWN APT CLOUDY    55  53  93 S6        29.98F FOG
WESTMINSTER*   LGT RAIN  52  48  87 SE3       30.00F VSB 3/4

$$

MDZ501>502-020600-
WESTERN MARYLAND

CITY           SKY/WX    TMP DP  RH WIND       PRES   REMARKS
OAKLAND*       FOG       54  54 100 SE8       29.97S VSB 1/4
CUMBERLAND*    CLOUDY    59  59 100 NW3       30.00F

$$

VAZ025>031-020600-
SHENANDOAH VALLEY

CITY           SKY/WX    TMP DP  RH WIND       PRES   REMARKS
WINCHESTER*    CLOUDY    55  55 100 E3        29.97F FOG
FRONT ROYAL*   CLOUDY    55  55 100 CALM      29.96F
LURAY*         CLOUDY    59  59 100 W5        29.97S
NEW MARKET*    MOCLDY    56  56 100 CALM      29.97S
STAUNTON*      FAIR      62  62 100 CALM      29.99S
WAYNESBORO*    FAIR      59  57  95 MISG      29.98R

$$

WVZ021-048>050-054>055-020600-
EASTERN WEST VIRGINIA PANHANDLE

CITY           SKY/WX    TMP DP  RH WIND       PRES   REMARKS
MARTINSBURG    LGT RAIN  55  54  96 E3        29.97F
PETERSBURG*    MOCLDY    60  58  93 CALM      29.96F

$$

VAZ036>039-050-020600-
CENTRAL FOOTHILLS

CITY           SKY/WX    TMP DP  RH WIND       PRES   REMARKS
CHARLOTTESVILL CLOUDY    62  60  93 N5        29.98R
CULPEPER*      CLOUDY    58  58 100 CALM      30.01S
ORANGE*        DRIZZLE   61  61 100 CALM      30.00F
GORDONSVILLE*  CLOUDY    61  61 100 N5        29.98S
WARRENTON*     CLOUDY    58  54  86 CALM      29.99S

$$

VAZ055>057-020600-
NORTH AND CENTRAL PIEDMONT

CITY           SKY/WX    TMP DP  RH WIND       PRES   REMARKS
FREDERICKSBRG* LGT RAIN  59  59 100 E7        30.00R
STAFFORD*      TSTM      56  56  97 SE12      30.05R

$$

NCZ024-NYZ072-PAZ021-071-VAZ022-071-020600-
OTHER REGIONAL OBSERVATIONS

CITY           SKY/WX    TMP DP  RH WIND       PRES   REMARKS
NEW YORK CITY  CLOUDY    46  43  89 E6        30.09F FOG
PHILADELPHIA   CLOUDY    50  47  89 NE7       30.06F FOG
PITTSBURGH     CLOUDY    59  54  83 N3        29.91R
ROANOKE        MOCLDY    61  59  93 SW5       30.00F
RICHMOND       TSTM      63  63 100 NE5       29.98F VSB 1/4
RALEIGH        CLOUDY    68  64  87 SW9       29.99F

$$

ANZ530>537-020600-
MARINE OBSERVATIONS

STATION/POSITION TIME  TEMP    WIND        PRES
                       AIR SEA DIR/SP/G
                 (UTC) (F)     (DEG/KT/KT) (MB)
THOMAS PT LIGHT  0500   54 57   90/  6/  7 1017.4F
BALT KEY BRIDGE  0400   54      30/  3/  3 1016.9F
COVE POINT       0400   55      70/  5/  6 1017.0F
LEWISETTA        0400   59 59   70/  5/  7 1015.8F
SOLOMONS ISLAND  0400   56 59   40/  4/  6   N/A
PINEY POINT      0406           70/  5/  7   N/A

$$





USA.gov is the U.S. government's official web portal to all federal, state and local government web resources and services.